Location: College Park
(38.9810°N, 76.9370°W)
Time: 07:10:31
(UTC-05:00)

Tiangong 1 - Visible Passes

Search period start: 17 December 2017 00:00
Search period end: 27 December 2017 00:00
Orbit: 274 x 301 km, 42.8° (Epoch: 17 December)

Date Brightness Start Highest point End Pass type
(mag) Time Alt. Az. Time Alt. Az. Time Alt. Az.
19 Dec 3.6 05:39:13 10° S 05:40:34 13° SE 05:41:57 10° ESE visible
20 Dec 2.4 05:43:33 23° S 05:44:09 26° SSE 05:46:20 10° E visible
21 Dec 1.1 05:47:41 52° SSE 05:47:42 52° SSE 05:50:11 10° ENE visible
22 Dec 0.6 05:51:29 67° NE 05:51:29 67° NE 05:53:44 10° ENE visible
23 Dec 1.1 05:55:01 44° NNE 05:55:01 44° NNE 05:57:08 10° ENE visible
24 Dec 1.5 05:58:21 34° N 05:58:21 34° N 06:00:27 10° ENE visible
25 Dec 1.6 06:01:30 31° N 06:01:30 31° N 06:03:42 10° ENE visible
26 Dec 1.5 06:04:31 31° N 06:04:39 31° N 06:06:56 10° ENE visible
